Flag for Poland Weather past 2 weeks in Wroclaw, Poland

Now
73 °F

Sunny.


Feels Like: 77 °F
Forecast: 64 / 93 °F
Wind: 1 mph from North

Location: Wroclaw Ii

Current Time: Aug 3, 2015 at 9:24:58 AM

Latest Report: Aug 3, 2015 at 9:00 AM


Visibility: 10 mi

Pressure: 30.15 "Hg

Humidity: 57%

Dew point: 57 °F

Location of WroclawLocation

Historic Weather in Wroclaw — Graph

°F

Wroclaw temperature yesterday

Maximum temperature yesterday: 82 °F (at 2:30 PM)
Minimum temperature yesterday: 61 °F (at 5:30 AM)
Average temperature yesterday: 73 °F

Past Weeks' High & Low Weather Summary

 TemperatureHumidityPressure
High93 °F (Jul 22, 2:30 PM)100% (Jul 19, 10:30 PM)30.15 "Hg (Jul 19, 10:30 PM)
Low48 °F (Aug 1, 3:30 AM)16% (Jul 21, 8:30 AM)29.65 "Hg (Jul 25, 12:00 PM)
Average70 °F61%29.92 "Hg
* Reported Jul 19 8:00 AM — Aug 3 8:00 AM, Wroclaw, Weather by CustomWeather, © 2015

Note: Actual official high and low records may vary slightly from our data, if they occured in-between our weather recording intervals... More about our weather records

Advertising

Wroclaw weather history for previous 24 hours

 ConditionsComfort  
Time TempWeatherWind HumidityBarometerVisibility
8:00 AM
Mon, Aug 3
66 °FSunny.1 mph78%30.15 "Hg10 mi
7:30 AM66 °FSunny.1 mph78%30.15 "Hg10 mi
7:00 AM63 °FSunny.3 mph88%30.12 "Hg10 mi
6:00 AM57 °FClear.3 mph88%30.15 "Hg10 mi
5:00 AM57 °FClear.5 mph88%30.12 "Hg10 mi
4:30 AM57 °FClear.3 mph94%30.12 "Hg10 mi
4:00 AM59 °FClear.No wind88%30.12 "Hg10 mi
3:30 AM59 °FClear.1 mph88%30.12 "Hg10 mi
3:00 AM59 °FClear.2 mph88%30.12 "Hg10 mi
2:30 AM61 °FClear.1 mph83%30.12 "Hg10 mi
2:00 AM63 °FClear.1 mph77%30.12 "Hg10 mi
1:30 AM63 °FClear.No wind77%30.15 "Hg10 mi
1:00 AM64 °FClear.No wind73%30.15 "Hg10 mi
12:30 AM66 °FClear.1 mph68%30.15 "Hg10 mi
12:00 AM68 °FClear.2 mph64%30.15 "Hg10 mi
11:30 PM
Sun, Aug 2
68 °FClear.1 mph64%30.15 "Hg10 mi
11:00 PM68 °FClear.1 mph64%30.15 "Hg10 mi
10:30 PM72 °FClear.3 mph57%30.15 "Hg10 mi
10:00 PM70 °FClear.3 mph60%30.15 "Hg10 mi
9:30 PM72 °FSunny.3 mph53%30.15 "Hg10 mi
9:00 PM73 °FSunny.3 mph50%30.12 "Hg10 mi
8:30 PM73 °FSunny.5 mph47%30.12 "Hg10 mi
8:00 PM77 °FPassing clouds.3 mph36%30.12 "HgN/A
7:30 PM79 °FSunny.5 mph34%30.12 "Hg10 mi
7:00 PM79 °FSunny.6 mph39%30.12 "Hg10 mi
6:30 PM79 °FPassing clouds.7 mph37%30.12 "HgN/A
6:00 PM79 °FSunny.7 mph37%30.15 "Hg10 mi
5:30 PM79 °FSunny.9 mph37%30.15 "Hg10 mi
5:00 PM79 °FSunny.9 mph39%30.15 "Hg10 mi
4:30 PM79 °FPassing clouds.9 mph42%30.15 "HgN/A
4:00 PM81 °FPassing clouds.10 mph39%30.15 "HgN/A
3:30 PM82 °FPassing clouds.8 mph32%30.15 "HgN/A
3:00 PM82 °FPassing clouds.8 mph35%30.15 "HgN/A
2:30 PM82 °FPassing clouds.8 mph35%30.12 "HgN/A
2:00 PM81 °FPassing clouds.6 mph39%30.12 "HgN/A
1:30 PM81 °FPassing clouds.5 mph39%30.12 "HgN/A
1:00 PM81 °FSunny.6 mph39%30.12 "Hg10 mi
12:30 PM81 °FPassing clouds.5 mph39%30.12 "HgN/A
12:00 PM79 °FSunny.7 mph42%30.12 "Hg10 mi
11:30 AM79 °FSunny.7 mph45%30.12 "Hg10 mi
11:00 AM79 °FPassing clouds.6 mph42%30.12 "HgN/A
10:30 AM81 °FPassing clouds.6 mph42%30.12 "HgN/A
10:00 AM77 °FPassing clouds.5 mph44%30.12 "HgN/A
9:30 AM75 °FPassing clouds.3 mph47%30.12 "HgN/A
9:00 AM70 °FPassing clouds.3 mph57%30.12 "HgN/A
Weather by CustomWeather, © 2015

See weather overviewHow to use our weather pages